"TOA5","MOW","CPU:UNC_MeetingWaters","DataHourly"
"TIMESTAMP","SondeTempC","SpCond","DOSat","DOmg","pH","Turb","BattVolt_Min"
"TS","","","","","","",""
"","Smp","Smp","Smp","Smp","Smp","Smp","Min"
"2009-07-01 04:00:00",21.1299991608,0.0,99.3000030518,-24.2999992371,7.51000022888,-7.19999980927,12.779999733
"2009-07-01 05:00:00",20.9599990845,0.0,99.3000030518,-24.1000003815,7.5,-7.19999980927,12.75
"2009-07-01 06:00:00",20.7600002289,0.0,99.3000030518,-22.7999992371,7.48000001907,-7.19999980927,12.7399997711
"2009-07-01 07:00:00",20.3500003815,0.0,99.4000015259,-22.0,7.46999979019,-7.09999990463,12.7299995422
"2009-07-01 08:00:00",19.7600002289,0.0,99.8000030518,-22.1000003815,7.46999979019,-7.09999990463,12.6899995804
"2009-07-01 09:00:00",19.1100006104,0.0,99.9000015259,-22.8999996185,7.48000001907,-7.09999990463,12.6999998093
"2009-07-01 10:00:00",19.1599998474,0.0,99.6999969482,-25.3999996185,7.53000020981,-7.09999990463,12.6999998093
"2009-07-01 11:00:00",19.8500003815,0.0,100.199996948,-28.7999992371,7.59000015259,-4.09999990463,12.7700004578
"2009-07-01 12:00:00",20.8500003815,0.0,98.4000015259,-28.5,7.57999992371,-5.90000009537,12.8900003433
"2009-07-01 13:00:00",21.9200000763,0.0,97.8000030518,-26.8999996185,7.55000019073,-7.30000019073,13.1599998474
"2009-07-01 14:00:00",23.2900009155,0.0,95.5,-14.3000001907,7.32999992371,-7.40000009537,13.4099998474
"2009-07-01 15:00:00",25.0400009155,0.0,96.5999984741,4.0,7.01000022888,5.40000009537,13.1000003815
"2009-07-01 16:00:00",26.4300003052,0.0,94.0999984741,8.5,6.94000005722,-7.69999980927,13.0200004578
"2009-07-01 17:00:00",27.2900009155,0.0,92.9000015259,12.8000001907,6.86000013351,-7.69999980927,12.9799995422
"2009-07-01 18:00:00",27.2999992371,0.0,93.0999984741,17.1000003815,6.78999996185,-7.69999980927,12.970000267
"2009-07-01 19:00:00",27.0300006866,0.0,94.6999969482,18.8999996185,6.76000022888,-7.69999980927,12.9399995804
"2009-07-01 20:00:00",26.8400001526,0.0,95.8000030518,18.3999996185,6.76999998093,-7.69999980927,12.9300003052
"2009-07-01 21:00:00",26.7800006866,0.0,96.8000030518,15.1999998093,6.82000017166,-7.69999980927,13.0200004578
"2009-07-01 22:00:00",26.0300006866,0.0,96.8000030518,13.6999998093,6.84999990463,-7.59999990463,13.0799999237
"2009-07-01 23:00:00",25.1800003052,0.0,97.5999984741,-2.40000009537,7.11999988556,-7.59999990463,12.9600000381
"2009-07-02 00:00:00",24.2099990845,0.0,98.4000015259,-15.6999998093,7.34999990463,-7.5,12.8699998856
"2009-07-02 01:00:00",23.3500003815,0.0,99.0999984741,-16.3999996185,7.36000013351,-7.40000009537,12.8500003815
"2009-07-02 02:00:00",23.4200000763,0.0,99.0,-20.0,7.42999982834,-7.40000009537,12.8100004196
"2009-07-02 03:00:00",22.8600006104,0.0,99.4000015259,-17.7000007629,7.38999986649,-7.30000019073,12.7899999619
"2009-07-02 04:00:00",22.25,0.0,99.4000015259,-21.6000003815,7.46000003815,-7.30000019073,12.7600002289
"2009-07-02 05:00:00",21.6800003052,0.0,99.6999969482,-21.2000007629,7.44999980927,-7.30000019073,12.75
"2009-07-02 06:00:00",21.2199993134,0.0,99.6999969482,-23.2000007629,7.48999977112,-7.19999980927,12.7299995422
"2009-07-02 07:00:00",20.8099994659,0.0,99.9000015259,-23.6000003815,7.48999977112,-7.19999980927,12.6999998093
"2009-07-02 08:00:00",20.2600002289,0.0,99.9000015259,-27.2999992371,7.55999994278,-7.19999980927,12.7100000381
"2009-07-02 09:00:00",19.8799991608,0.0,100.0,-27.5,7.55999994278,-7.19999980927,12.6999998093
"2009-07-02 10:00:00",19.8199996948,0.0,100.099998474,-29.3999996185,7.59999990463,-7.19999980927,12.6999998093
"2009-07-02 11:00:00",20.2299995422,0.0,99.9000015259,-30.3999996185,7.61000013351,-7.19999980927,12.720000267
"2009-07-02 12:00:00",21.1200008392,0.0,99.9000015259,-31.6000003815,7.63000011444,-0.300000011921,12.779999733
"2009-07-02 13:00:00",22.0200004578,0.0,98.4000015259,-28.2000007629,7.57000017166,-7.19999980927,12.9200000763
"2009-07-02 14:00:00",23.5499992371,0.0,95.9000015259,-12.8999996185,7.30000019073,-7.30000019073,13.3699998856
"2009-07-02 15:00:00",26.7999992371,0.0,96.1999969482,4.09999990463,7.01000022888,-7.59999990463,13.1199998856
"2009-07-02 16:00:00",28.0300006866,0.0,97.5999984741,12.1000003815,6.86999988556,-7.69999980927,13.0200004578
"2009-07-02 17:00:00",27.3500003815,0.0,94.1999969482,13.6000003815,6.84999990463,-7.69999980927,13.0
"2009-07-02 18:00:00",27.5699996948,0.0,98.0,21.3999996185,6.71999979019,-7.69999980927,12.9799995422
"2009-07-02 19:00:00",26.9400005341,0.0,97.8000030518,21.6000003815,6.71000003815,-7.69999980927,12.970000267
"2009-07-02 20:00:00",26.3700008392,0.0,98.5,15.0,6.82000017166,-7.59999990463,12.9799995422
"2009-07-02 21:00:00",25.5300006866,0.0,98.5999984741,22.3999996185,6.69999980927,-7.5,13.1199998856
"2009-07-02 22:00:00",24.9699993134,0.0,98.8000030518,9.89999961853,6.90999984741,-7.5,13.0699996948
"2009-07-02 23:00:00",24.0699996948,0.0,99.0999984741,-12.8000001907,7.30000019073,-7.40000009537,12.9399995804
"2009-07-03 00:00:00",23.3600006104,0.0,99.5999984741,-19.1000003815,7.40999984741,-7.40000009537,12.8900003433
"2009-07-03 01:00:00",22.9099998474,0.0,99.8000030518,-17.7999992371,7.38999986649,-7.40000009537,12.8599996567
"2009-07-03 02:00:00",22.5400009155,0.0,99.8000030518,-20.1000003815,7.42999982834,-7.30000019073,12.8500003815
"2009-07-03 03:00:00",22.1800003052,0.268999993801,91.6999969482,-42.2000007629,7.80999994278,196.600006104,12.8199996948
"2009-07-03 04:00:00",21.8500003815,0.00700000021607,82.8000030518,-37.5999984741,7.73000001907,102.300003052,12.7899999619
"2009-07-03 05:00:00",20.4799995422,0.00600000005215,81.8000030518,-43.2000007629,7.84000015259,48.0999984741,12.7700004578
"2009-07-03 06:00:00",19.8700008392,0.00600000005215,99.5,-38.5,7.75,-7.09999990463,12.75
"2009-07-03 07:00:00",19.0400009155,0.00600000005215,100.599998474,-27.3999996185,7.55999994278,0.5,12.7299995422
"2009-07-03 08:00:00",18.3299999237,0.00600000005215,99.3000030518,-18.5,7.40999984741,-3.90000009537,12.6999998093
"2009-07-03 09:00:00",18.0400009155,0.00600000005215,99.6999969482,-15.1000003815,7.34999990463,10.8999996185,12.6899995804
"2009-07-03 10:00:00",18.25,0.00600000005215,100.199996948,-17.7999992371,7.40000009537,-7.0,12.6800003052
"2009-07-03 11:00:00",18.2800006866,0.00600000005215,100.300003052,-19.5,7.42999982834,-5.69999980927,12.7299995422
"2009-07-03 12:00:00",18.6299991608,0.00499999988824,99.6999969482,-5.30000019073,7.17999982834,-1.39999997616,13.0600004196
"2009-07-03 13:00:00",19.6499996185,0.00400000018999,99.0999984741,20.5,6.71999979019,-5.19999980927,13.3500003815
"2009-07-03 14:00:00",20.9400005341,0.00200000009499,97.9000015259,45.5999984741,6.28999996185,-3.90000009537,13.470000267
"2009-07-03 15:00:00",24.3700008392,0.0,96.0,59.5999984741,6.05999994278,-5.90000009537,13.1000003815
"2009-07-03 16:00:00",25.2600002289,0.0,95.8000030518,63.4000015259,5.98999977112,-5.5,13.0699996948
"2009-07-03 17:00:00",25.3600006104,0.0,97.8000030518,60.5,6.05000019073,-6.5,13.0699996948
"2009-07-03 18:00:00",25.2299995422,0.0,99.4000015259,59.5,6.05999994278,-7.40000009537,13.0799999237
"2009-07-03 19:00:00",24.8700008392,0.0,99.6999969482,65.0,5.96999979019,-7.40000009537,13.0699996948
"2009-07-03 20:00:00",24.8299999237,0.0,99.5,70.5999984741,5.86999988556,-7.40000009537,13.1000003815
"2009-07-03 21:00:00",24.5599994659,0.0,98.9000015259,58.0,6.09000015259,-7.30000019073,13.2100000381
"2009-07-03 22:00:00",24.0400009155,0.0,99.0,58.2000007629,6.07999992371,-7.30000019073,13.1400003433
"2009-07-03 23:00:00",22.8199996948,0.0,99.4000015259,48.7000007629,6.23999977112,-7.19999980927,12.970000267
"2009-07-04 00:00:00",21.6599998474,0.0,100.0,41.7000007629,6.36000013351,-7.19999980927,12.9099998474
"2009-07-04 01:00:00",20.5599994659,0.0,100.300003052,37.2999992371,6.42999982834,-7.09999990463,12.8900003433
"2009-07-04 02:00:00",19.9699993134,0.0,100.5,35.7000007629,6.46000003815,-7.09999990463,12.8800001144
"2009-07-04 03:00:00",19.9699993134,0.0,100.199996948,29.1000003815,6.57999992371,-7.09999990463,12.8299999237
"2009-07-04 04:00:00",19.6399993896,0.0,100.599998474,31.3999996185,6.53000020981,-7.0,12.8299999237
"2009-07-04 05:00:00",18.8899993896,0.0,100.800003052,34.0999984741,6.48999977112,-7.0,12.8100004196
"2009-07-04 06:00:00",18.2900009155,0.0,100.400001526,25.2999992371,6.63999986649,-7.0,12.779999733
"2009-07-04 07:00:00",17.7600002289,0.0,100.800003052,21.8999996185,6.69999980927,-6.90000009537,12.7600002289
"2009-07-04 08:00:00",17.4200000763,0.0,100.599998474,20.5,6.71999979019,-6.90000009537,12.7399997711
"2009-07-04 09:00:00",17.0799999237,0.0,101.099998474,21.5,6.71000003815,-6.90000009537,12.720000267
"2009-07-04 10:00:00",17.1000003815,0.0,100.699996948,19.8999996185,6.73000001907,-7.0,12.6999998093
"2009-07-04 11:00:00",17.6599998474,0.0,100.599998474,11.8000001907,6.88000011444,-7.0,12.6999998093
"2009-07-04 12:00:00",18.9099998474,0.0,101.099998474,12.3999996185,6.86999988556,-6.5,12.7700004578
"2009-07-04 13:00:00",20.7399997711,0.0,97.5,36.2000007629,6.44999980927,-7.0,12.9499998093
"2009-07-04 14:00:00",21.8899993896,0.0,97.9000015259,41.2999992371,6.36999988556,-3.90000009537,13.3699998856
"2009-07-04 15:00:00",25.1399993896,0.0,97.6999969482,48.5,6.25,-5.59999990463,13.0900001526
"2009-07-04 16:00:00",27.2399997711,0.0,97.1999969482,53.0999984741,6.17999982834,-7.5,13.0200004578
"2009-07-04 17:00:00",27.0100002289,0.0,98.4000015259,55.4000015259,6.13999986649,-7.5,13.0100002289
"2009-07-04 18:00:00",26.7600002289,0.0,98.5,56.9000015259,6.11000013351,-7.59999990463,12.9799995422
"2009-07-04 19:00:00",25.7199993134,0.0,98.4000015259,54.5999984741,6.15000009537,-7.5,12.9799995422
"2009-07-04 20:00:00",25.25,0.0,99.0,50.2000007629,6.21999979019,-7.5,13.029999733
"2009-07-04 21:00:00",24.7099990845,0.0,99.1999969482,46.4000015259,6.28000020981,-7.40000009537,13.1000003815
"2009-07-04 22:00:00",23.9300003052,0.0,99.1999969482,42.5999984741,6.34999990463,-7.40000009537,13.0600004196
"2009-07-04 23:00:00",23.3099994659,0.0,99.5999984741,32.7999992371,6.51999998093,-7.30000019073,13.0100002289
"2009-07-05 00:00:00",22.1399993896,0.0,99.9000015259,23.3999996185,6.67999982834,-7.30000019073,12.8999996185
"2009-07-05 01:00:00",21.5499992371,0.0,99.8000030518,20.2000007629,6.73000001907,-7.19999980927,12.8699998856
"2009-07-05 02:00:00",21.2299995422,0.0,100.0,18.1000003815,6.76999998093,-7.19999980927,12.8500003815
"2009-07-05 03:00:00",20.8799991608,0.0,100.199996948,19.0,6.75,-7.19999980927,12.8199996948
"2009-07-05 04:00:00",20.5599994659,0.0,100.199996948,14.8999996185,6.82000017166,-7.09999990463,12.7899999619
"2009-07-05 05:00:00",20.5400009155,0.0,100.0,13.3000001907,6.84999990463,-7.09999990463,12.7600002289
"2009-07-05 06:00:00",20.4699993134,0.0,100.0,12.6999998093,6.86000013351,-7.09999990463,12.7399997711
"2009-07-05 07:00:00",20.1599998474,0.0,100.0,13.3999996185,6.84999990463,-7.09999990463,12.720000267
"2009-07-05 08:00:00",19.8899993896,0.0,100.0,8.39999961853,6.94000005722,-7.09999990463,12.6999998093
"2009-07-05 09:00:00",19.9699993134,0.0,99.8000030518,3.79999995232,7.01999998093,-7.09999990463,12.6999998093
"2009-07-05 10:00:00",20.0200004578,0.0,100.0,3.09999990463,7.03000020981,-7.09999990463,12.6700000763
"2009-07-05 11:00:00",20.3600006104,0.0,100.0,0.300000011921,7.07999992371,-7.0,12.720000267
"2009-07-05 12:00:00",20.3600006104,0.0,100.0,0.300000011921,7.07999992371,-7.0,12.6999998093
"2009-07-05 13:00:00",22.5300006866,0.112000003457,96.5999984741,-36.4000015259,7.71000003815,375.200012207,12.7100000381
"2009-07-05 14:00:00",22.3299999237,0.131999999285,92.0,-31.2000007629,7.61999988556,270.0,12.9899997711
"2009-07-05 15:00:00",22.2800006866,0.00999999977648,88.4000015259,-26.2000007629,7.53999996185,158.5,13.25
"2009-07-05 16:00:00",22.1200008392,0.00400000018999,84.4000015259,-39.2999992371,7.76000022888,95.9000015259,13.2100000381
"2009-07-05 17:00:00",22.1900005341,0.00400000018999,83.3000030518,-36.2999992371,7.71000003815,65.5999984741,13.2299995422
"2009-07-05 18:00:00",22.0799999237,0.00400000018999,83.9000015259,-35.0999984741,7.69000005722,45.5,13.2700004578
"2009-07-05 19:00:00",22.3500003815,0.00400000018999,85.3000030518,-12.1999998093,7.28999996185,29.8999996185,13.5
"2009-07-05 20:00:00",22.6399993896,0.00400000018999,86.1999969482,7.0,6.96000003815,18.3999996185,14.029999733
"2009-07-05 21:00:00",22.2999992371,0.00400000018999,72.6999969482,19.2000007629,6.75,1.60000002384,13.1999998093
"2009-07-05 22:00:00",22.25,0.00400000018999,82.6999969482,16.3999996185,6.80000019073,1434.0,13.1499996185
"2009-07-05 23:00:00",22.1499996185,0.00400000018999,98.1999969482,15.3999996185,6.82000017166,-6.0,12.9399995804
"2009-07-06 00:00:00",21.9099998474,0.00400000018999,98.4000015259,14.1999998093,6.84000015259,-5.19999980927,12.9099998474
"2009-07-06 01:00:00",21.8700008392,0.00400000018999,98.3000030518,13.1000003815,6.86000013351,-6.30000019073,12.8999996185
"2009-07-06 02:00:00",21.7999992371,0.00400000018999,98.5,10.8000001907,6.88999986649,-1.10000002384,12.8900003433
"2009-07-06 03:00:00",21.9099998474,0.00400000018999,98.4000015259,7.59999990463,6.94999980927,-5.0,12.8699998856
"2009-07-06 04:00:00",21.6900005341,0.00300000002608,98.6999969482,7.90000009537,6.94999980927,-0.699999988079,12.8500003815
"2009-07-06 05:00:00",21.4899997711,0.00300000002608,98.6999969482,6.19999980927,6.98000001907,-7.19999980927,12.8400001526
"2009-07-06 06:00:00",21.2000007629,0.00300000002608,98.8000030518,5.0,7.0,-4.40000009537,12.8100004196
"2009-07-06 07:00:00",21.0900001526,0.00300000002608,98.8000030518,2.70000004768,7.03999996185,-4.69999980927,12.7899999619
"2009-07-06 08:00:00",21.9599990845,0.00999999977648,93.1999969482,-36.2000007629,7.71000003815,44.7000007629,12.7600002289
"2009-07-06 09:00:00",21.3299999237,0.00800000037998,90.9000015259,-53.0,8.0,25.8999996185,12.6599998474
"2009-07-06 10:00:00",21.1700000763,0.00700000021607,88.0,-56.9000015259,8.06999969482,13.5,12.6400003433
"2009-07-06 11:00:00",21.1000003815,0.00600000005215,87.3000030518,-55.4000015259,8.05000019073,9.30000019073,12.6300001144
"2009-07-06 12:00:00",21.0799999237,0.00600000005215,88.8000030518,-53.9000015259,8.02000045776,4.40000009537,12.6400003433
"2009-07-06 13:00:00",21.2399997711,0.00600000005215,89.9000015259,-52.5999984741,8.0,6.0,12.6400003433
"2009-07-06 14:00:00",21.2099990845,0.00600000005215,91.5999984741,-55.2000007629,8.03999996185,1.70000004768,12.970000267
"2009-07-06 15:00:00",21.5400009155,0.00600000005215,91.0999984741,-39.0999984741,7.76000022888,8.19999980927,13.1899995804
"2009-07-06 16:00:00",22.1200008392,0.00600000005215,91.4000015259,-25.0,7.51000022888,6.69999980927,13.4200000763
"2009-07-06 17:00:00",23.2600002289,0.00499999988824,92.1999969482,-13.6000003815,7.32000017166,5.80000019073,13.9099998474
"2009-07-06 18:00:00",23.3999996185,0.00300000002608,98.0,-1.39999997616,7.11000013351,-4.40000009537,13.8999996185
"2009-07-06 19:00:00",23.8600006104,0.00300000002608,97.9000015259,-2.5,7.11999988556,-6.5,13.8999996185
"2009-07-06 20:00:00",23.4200000763,0.00300000002608,98.0,-2.70000004768,7.13000011444,-6.30000019073,13.7899999619
"2009-07-06 21:00:00",23.2800006866,0.00300000002608,98.1999969482,-5.5,7.17999982834,-7.09999990463,13.1300001144
"2009-07-06 22:00:00",23.0599994659,0.00200000009499,98.3000030518,-7.59999990463,7.21000003815,-2.5,12.9799995422
"2009-07-06 23:00:00",22.7900009155,0.00200000009499,98.5999984741,-10.3000001907,7.26000022888,-6.30000019073,12.8900003433
"2009-07-07 00:00:00",22.0,0.00200000009499,98.8000030518,-11.1000003815,7.26999998093,-7.0,12.8599996567
"2009-07-07 01:00:00",21.7399997711,0.00200000009499,98.9000015259,-14.6000003815,7.32999992371,-5.19999980927,12.8199996948
"2009-07-07 02:00:00",21.7000007629,0.00200000009499,99.0,-16.7000007629,7.36999988556,-6.90000009537,12.7899999619
"2009-07-07 03:00:00",21.5200004578,0.00200000009499,99.0,-16.8999996185,7.38000011444,-5.80000019073,12.7600002289
"2009-07-07 04:00:00",21.25,0.00200000009499,99.0,-17.3999996185,7.38000011444,-7.19999980927,12.7299995422
"2009-07-07 05:00:00",20.7199993134,0.00200000009499,99.0,-16.7000007629,7.36999988556,-6.0,12.6700000763
"2009-07-07 06:00:00",20.2900009155,0.00200000009499,99.0999984741,-19.6000003815,7.42000007629,-6.90000009537,12.6300001144
"2009-07-07 07:00:00",19.8999996185,0.00200000009499,99.4000015259,-18.7000007629,7.40999984741,-7.19999980927,12.6400003433
"2009-07-07 08:00:00",19.5900001526,0.00200000009499,99.5,-19.0,7.42000007629,-7.19999980927,12.6700000763
"2009-07-07 09:00:00",19.0499992371,0.00200000009499,99.9000015259,-18.2000007629,7.40000009537,-6.69999980927,12.6800003052
"2009-07-07 10:00:00",19.0200004578,0.00200000009499,99.5999984741,-25.1000003815,7.51999998093,-7.0,12.6800003052
"2009-07-07 11:00:00",19.5200004578,0.00200000009499,99.6999969482,-32.7000007629,7.65000009537,-5.5,12.6999998093
"2009-07-07 12:00:00",20.3600006104,0.00200000009499,99.1999969482,-34.7999992371,7.69000005722,-5.19999980927,12.7899999619
"2009-07-07 13:00:00",21.3400001526,0.00200000009499,98.6999969482,-19.6000003815,7.42000007629,-3.40000009537,13.0200004578
"2009-07-07 14:00:00",22.5599994659,0.0010000000475,98.0999984741,-16.7000007629,7.36999988556,-7.0,13.3800001144
"2009-07-07 15:00:00",24.9500007629,0.0,93.5999984741,-4.0,7.15000009537,-3.20000004768,13.5
"2009-07-07 16:00:00",25.1900005341,0.0,96.3000030518,4.09999990463,7.01000022888,-6.40000009537,13.7700004578
"2009-07-07 17:00:00",25.3999996185,0.0,95.5,16.6000003815,6.80000019073,-7.19999980927,13.779999733
"2009-07-07 18:00:00",24.8500003815,0.0,96.8000030518,3.90000009537,7.01999998093,-7.0,13.0699996948
"2009-07-07 19:00:00",24.9599990845,0.0,96.5999984741,1.10000002384,7.05999994278,-7.59999990463,13.0699996948
"2009-07-07 20:00:00",24.1100006104,0.0,98.0,0.10000000149,7.07999992371,-7.59999990463,13.0699996948
"2009-07-07 21:00:00",24.1499996185,0.0,97.6999969482,-3.90000009537,7.15000009537,-7.5,13.2899999619
"2009-07-07 22:00:00",23.7600002289,0.0,98.1999969482,-2.5,7.11999988556,-7.5,13.1899995804
"2009-07-07 23:00:00",23.0300006866,0.0,98.4000015259,-8.19999980927,7.21999979019,-7.5,13.0
"2009-07-08 00:00:00",22.2000007629,0.0,98.9000015259,-10.1999998093,7.26000022888,-7.40000009537,12.9499998093
"2009-07-08 01:00:00",21.3600006104,0.0,99.0,-10.5,7.26999998093,-7.40000009537,12.9399995804
"2009-07-08 02:00:00",20.8500003815,0.0,100.0,-10.3000001907,7.26000022888,-7.40000009537,12.9099998474
"2009-07-08 03:00:00",20.4300003052,0.0,100.099998474,-12.8999996185,7.30999994278,-7.30000019073,12.8999996185
"2009-07-08 04:00:00",19.8899993896,0.0010000000475,100.199996948,-17.0,7.38000011444,-6.30000019073,12.8900003433
"2009-07-08 05:00:00",19.5400009155,0.0010000000475,99.6999969482,-18.2000007629,7.40000009537,-7.19999980927,12.8699998856
"2009-07-08 06:00:00",19.1900005341,0.00300000002608,99.4000015259,-19.2999992371,7.42000007629,-7.09999990463,12.8500003815
"2009-07-08 07:00:00",18.8400001526,0.00300000002608,99.9000015259,-17.2000007629,7.38000011444,-7.0,12.8400001526
"2009-07-08 08:00:00",18.7000007629,0.00300000002608,100.099998474,-16.3999996185,7.36999988556,-7.19999980927,12.8299999237
"2009-07-08 09:00:00",18.3799991608,0.00300000002608,100.300003052,-16.0,7.36000013351,-7.19999980927,12.8199996948
"2009-07-08 10:00:00",18.3799991608,0.00300000002608,100.199996948,-18.6000003815,7.40999984741,-7.19999980927,12.8199996948
"2009-07-08 11:00:00",18.9899997711,0.00300000002608,100.0,-24.0,7.5,-7.09999990463,12.8100004196
"2009-07-08 12:00:00",20.0200004578,0.00300000002608,99.5,-23.6000003815,7.48999977112,-7.30000019073,12.9300003052
"2009-07-08 13:00:00",21.1399993896,0.00300000002608,98.8000030518,-20.3999996185,7.44000005722,-7.40000009537,13.1499996185
"2009-07-08 14:00:00",22.5100002289,0.00200000009499,98.0999984741,-10.3999996185,7.26000022888,-7.5,13.5699996948
"2009-07-08 15:00:00",25.2600002289,0.0,95.0,6.40000009537,6.96999979019,-7.59999990463,13.0799999237
"2009-07-08 16:00:00",26.8500003815,0.0,93.6999969482,17.7999992371,6.78000020981,-7.69999980927,13.0
"2009-07-08 17:00:00",26.4400005341,0.0,95.8000030518,19.6000003815,6.75,-7.69999980927,13.0100002289
"2009-07-08 18:00:00",25.3700008392,0.0,96.5,9.60000038147,6.92000007629,-7.59999990463,13.0200004578
"2009-07-08 19:00:00",25.75,0.0,96.6999969482,14.8999996185,6.82999992371,-7.69999980927,13.029999733
"2009-07-08 20:00:00",25.9099998474,0.0,97.4000015259,18.5,6.76999998093,-7.59999990463,13.029999733
"2009-07-08 21:00:00",24.8099994659,0.0,98.4000015259,8.69999980927,6.92999982834,-7.5,13.0699996948
"2009-07-08 22:00:00",24.1599998474,0.0,98.8000030518,5.40000009537,6.98999977112,-7.5,13.4799995422
"2009-07-08 23:00:00",23.5699996948,0.0,99.4000015259,-2.29999995232,7.11999988556,-7.5,12.9799995422
"2009-07-09 00:00:00",22.8600006104,0.0,99.6999969482,-6.69999980927,7.19999980927,-7.40000009537,12.8999996185
"2009-07-09 01:00:00",22.4799995422,0.0,99.6999969482,-9.0,7.23999977112,-7.40000009537,12.8900003433
"2009-07-09 02:00:00",22.3899993896,0.0,99.9000015259,-9.10000038147,7.23999977112,-7.40000009537,12.8500003815
"2009-07-09 03:00:00",21.9300003052,0.0,100.099998474,-10.6999998093,7.26999998093,-7.30000019073,12.8299999237
"2009-07-09 04:00:00",21.7299995422,0.0,100.099998474,-11.1999998093,7.28000020981,-7.30000019073,12.8299999237
"2009-07-09 05:00:00",21.5599994659,0.0,100.400001526,-13.6000003815,7.32000017166,-7.30000019073,12.8100004196
"2009-07-09 06:00:00",21.6100006104,0.0,100.199996948,-13.6999998093,7.32000017166,-7.30000019073,12.7899999619
"2009-07-09 07:00:00",21.5599994659,0.0,100.099998474,-12.8999996185,7.30999994278,-7.30000019073,12.7899999619
"2009-07-09 08:00:00",21.4099998474,0.0,100.300003052,-15.0,7.34000015259,-7.30000019073,12.779999733
"2009-07-09 09:00:00",21.2199993134,0.0,100.400001526,-17.2999992371,7.38000011444,-7.30000019073,12.75
"2009-07-09 10:00:00",21.1900005341,0.0,100.599998474,-18.2000007629,7.40000009537,-7.30000019073,12.7600002289
"2009-07-09 11:00:00",21.3099994659,0.0,100.5,-15.3999996185,7.34999990463,-7.30000019073,12.7700004578
"2009-07-09 12:00:00",21.6299991608,0.0,100.5,-14.1000003815,7.32999992371,-7.40000009537,13.0399999619
"2009-07-09 13:00:00",22.1700000763,0.0,98.9000015259,-7.90000009537,7.21999979019,-7.40000009537,13.3500003815
"2009-07-09 14:00:00",22.7900009155,0.0,98.4000015259,-4.0,7.15000009537,-7.40000009537,13.6599998474
"2009-07-09 15:00:00",22.8199996948,0.0,97.6999969482,-0.600000023842,7.09000015259,-7.40000009537,14.0200004578
"2009-07-09 16:00:00",23.5599994659,0.0,97.9000015259,5.19999980927,6.98999977112,-7.5,14.0
"2009-07-09 17:00:00",25.9500007629,0.0,96.5,12.3000001907,6.86999988556,-7.59999990463,13.1199998856
"2009-07-09 18:00:00",25.4300003052,0.0,98.1999969482,14.3999996185,6.82999992371,-7.59999990463,13.0799999237
"2009-07-09 19:00:00",24.8799991608,0.0,98.3000030518,12.0,6.88000011444,-7.59999990463,13.0799999237
"2009-07-09 20:00:00",24.5400009155,0.0,99.5,10.6000003815,6.90000009537,-7.5,13.1300001144
"2009-07-09 21:00:00",23.8600006104,0.0,99.5999984741,0.40000000596,7.07999992371,-7.5,13.1499996185
"2009-07-09 22:00:00",23.5,0.0,99.9000015259,-0.899999976158,7.09999990463,-7.40000009537,13.0500001907
"2009-07-09 23:00:00",22.8500003815,0.0,100.300003052,0.0,7.07999992371,-7.40000009537,12.9499998093
"2009-07-10 00:00:00",22.1900005341,0.0,100.599998474,-5.59999990463,7.17999982834,-7.40000009537,12.8999996185
"2009-07-10 01:00:00",21.8600006104,0.0,100.599998474,-5.30000019073,7.17000007629,-7.40000009537,12.8999996185
"2009-07-10 02:00:00",21.3500003815,0.0,100.900001526,-6.40000009537,7.19000005722,-7.30000019073,12.8699998856
"2009-07-10 03:00:00",20.7800006866,0.0,101.099998474,-9.60000038147,7.25,-7.30000019073,12.8500003815